Simultaneous Nadir Overpasses (SNOs) Predictions

Prediction of SNOs between GOES-14 and AQUA Satellite Orbit:

Table of predicted SNOs for the next 14.0 days since TLE Epoch: 9/9/2023
Index Date Time (GOES-14) GOES-14 Lat,Lon AQUA Lat,Lon Distance(km) Time Diff (sec)
1 09/09/2023 20:58:12 -0.38,-108.52 0.17,-105.87 301.80 80
2 09/10/2023 09:16:12 0.37,-108.61 0.83,-110.88 258.72 80
3 09/12/2023 09:04:22 0.36,-108.60 0.10,-107.34 143.07 80
4 09/12/2023 21:22:30 -0.35,-108.51 -1.18,-112.38 439.76 80
5 09/14/2023 21:08:00 -0.35,-108.51 -0.40,-108.84 37.20 80
6 09/16/2023 20:56:09 -0.35,-108.52 0.35,-105.30 365.79 80
7 09/17/2023 09:14:09 0.33,-108.60 0.69,-110.31 194.08 80
8 09/19/2023 09:02:17 0.34,-108.60 -0.04,-106.76 208.77 80
9 09/19/2023 21:20:25 -0.32,-108.51 -1.00,-111.80 374.31 80
10 09/21/2023 21:08:32 -0.32,-108.50 -0.28,-108.25 28.19 80
